When you browse on this site, cookies collect data to enhance your experience and personalize the content and advertising you see.
Visit our Privacy Policy to learn more. By continuing to use the site, you agree to this use of cookies and data.
  • In Österreich
  • Länderverzeichnis
  • Für 7 Tage
  • Wassertemperatur
  • Satellitenkarten
  • Wetterkarte
  • News
  • Widgets
  • user-avatar
    Anmelden

    Stündliche Wetter Setubal

    Heute, 25 Mai, Samstag

    Zeit Temperatur Niederschläge Wind Luftdruck Luftfeuchtigkeit
    00:00 +15°C° 0 mm 4 m/S 756 mmHg 69%
    01:00 +15°C° 0 mm 4 m/S 756 mmHg 70%
    02:00 +15°C° 0 mm 4 m/S 756 mmHg 71%
    03:00 +15°C° 0 mm 4 m/S 756 mmHg 67%
    04:00 +15°C° 0 mm 5 m/S 756 mmHg 62%
    05:00 +15°C° 0 mm 5 m/S 757 mmHg 57%
    06:00 +19°C° 0 mm 5 m/S 757 mmHg 50%
    07:00 +21°C° 0 mm 5 m/S 757 mmHg 43%
    08:00 +23°C° 0 mm 5 m/S 758 mmHg 36%
    09:00 +26°C° 0 mm 5 m/S 758 mmHg 32%
    10:00 +28°C° 0 mm 4 m/S 758 mmHg 28%
    11:00 +29°C° 0 mm 4 m/S 758 mmHg 24%
    12:00 +30°C° 0 mm 4 m/S 758 mmHg 23%
    13:00 +32°C° 0 mm 4 m/S 757 mmHg 22%
    14:00 +33°C° 0 mm 4 m/S 757 mmHg 20%
    15:00 +32°C° 0 mm 5 m/S 757 mmHg 24%
    16:00 +30°C° 0 mm 6 m/S 757 mmHg 27%
    17:00 +29°C° 0 mm 7 m/S 757 mmHg 30%
    18:00 +27°C° 0 mm 6 m/S 757 mmHg 37%
    19:00 +23°C° 0 mm 6 m/S 757 mmHg 43%
    20:00 +21°C° 0 mm 6 m/S 758 mmHg 50%
    21:00 +20°C° 0 mm 5 m/S 758 mmHg 54%
    22:00 +20°C° 0 mm 4 m/S 758 mmHg 58%
    23:00 +19°C° 0 mm 4 m/S 758 mmHg 62%

    Morgen, 26 Mai, Sonntag

    Zeit Temperatur Niederschläge Wind Luftdruck Luftfeuchtigkeit
    00:00 +18°C° 0 mm 3 m/S 757 mmHg 65%
    01:00 +18°C° 0 mm 3 m/S 757 mmHg 68%
    02:00 +17°C° 0 mm 3 m/S 757 mmHg 70%
    03:00 +17°C° 0 mm 3 m/S 757 mmHg 70%
    04:00 +17°C° 0 mm 3 m/S 757 mmHg 70%
    05:00 +17°C° 0 mm 3 m/S 757 mmHg 69%
    06:00 +20°C° 0 mm 3 m/S 757 mmHg 57%
    07:00 +23°C° 0 mm 4 m/S 757 mmHg 46%
    08:00 +27°C° 0 mm 4 m/S 758 mmHg 34%
    09:00 +29°C° 0 mm 4 m/S 757 mmHg 31%
    10:00 +30°C° 0 mm 4 m/S 757 mmHg 28%
    11:00 +33°C° 0 mm 4 m/S 757 mmHg 25%
    12:00 +34°C° 0 mm 5 m/S 757 mmHg 24%
    13:00 +34°C° 0 mm 5 m/S 757 mmHg 24%
    14:00 +35°C° 0 mm 5 m/S 756 mmHg 23%
    15:00 +33°C° 0 mm 6 m/S 756 mmHg 26%
    16:00 +32°C° 0 mm 7 m/S 756 mmHg 29%
    17:00 +31°C° 0 mm 8 m/S 756 mmHg 32%
    18:00 +27°C° 0 mm 7 m/S 756 mmHg 39%
    19:00 +24°C° 0 mm 7 m/S 756 mmHg 45%
    20:00 +22°C° 0 mm 6 m/S 756 mmHg 52%
    21:00 +21°C° 0 mm 6 m/S 756 mmHg 55%
    22:00 +20°C° 0 mm 5 m/S 756 mmHg 59%
    23:00 +19°C° 0 mm 4 m/S 756 mmHg 62%

    übermorgen, 27 Mai, Montag

    Zeit Temperatur Niederschläge Wind Luftdruck Luftfeuchtigkeit
    00:00 +19°C° 0 mm 4 m/S 756 mmHg 66%
    01:00 +18°C° 0 mm 4 m/S 755 mmHg 69%
    02:00 +18°C° 0 mm 4 m/S 755 mmHg 72%
    03:00 +18°C° 0 mm 4 m/S 755 mmHg 73%
    04:00 +18°C° 0 mm 4 m/S 755 mmHg 74%
    05:00 +18°C° 0 mm 4 m/S 755 mmHg 75%
    06:00 +20°C° 0 mm 4 m/S 755 mmHg 66%
    07:00 +22°C° 0 mm 4 m/S 755 mmHg 57%
    08:00 +26°C° 0 mm 4 m/S 756 mmHg 48%
    09:00 +28°C° 0 mm 4 m/S 755 mmHg 42%
    10:00 +30°C° 0 mm 4 m/S 755 mmHg 36%
    11:00 +32°C° 0 mm 4 m/S 755 mmHg 30%
    12:00 +33°C° 0 mm 5 m/S 755 mmHg 30%
    13:00 +33°C° 0 mm 6 m/S 754 mmHg 29%
    14:00 +33°C° 0 mm 7 m/S 754 mmHg 29%
    15:00 +30°C° 0 mm 7 m/S 754 mmHg 34%
    16:00 +28°C° 0 mm 8 m/S 754 mmHg 40%
    17:00 +26°C° 0 mm 8 m/S 754 mmHg 46%
    18:00 +23°C° 0 mm 7 m/S 754 mmHg 52%
    19:00 +21°C° 0 mm 6 m/S 754 mmHg 59%
    20:00 +19°C° 0 mm 6 m/S 755 mmHg 66%
    21:00 +19°C° 0 mm 5 m/S 755 mmHg 70%
    22:00 +17°C° 0 mm 5 m/S 754 mmHg 73%
    23:00 +17°C° 0 mm 4 m/S 754 mmHg 77%

    28 Mai, Dienstag

    Zeit Temperatur Niederschläge Wind Luftdruck Luftfeuchtigkeit
    00:00 +17°C° 0 mm 4 m/S 754 mmHg 79%
    01:00 +17°C° 0 mm 3 m/S 754 mmHg 81%
    02:00 +17°C° 0 mm 3 m/S 753 mmHg 83%
    03:00 +17°C° 0 mm 3 m/S 753 mmHg 82%
    04:00 +17°C° 0 mm 3 m/S 753 mmHg 82%
    05:00 +17°C° 0 mm 3 m/S 753 mmHg 81%
    06:00 +20°C° 0 mm 3 m/S 754 mmHg 69%
    07:00 +22°C° 0 mm 4 m/S 754 mmHg 58%
    08:00 +26°C° 0 mm 4 m/S 754 mmHg 46%
    09:00 +29°C° 0 mm 4 m/S 754 mmHg 40%
    10:00 +32°C° 0 mm 4 m/S 754 mmHg 33%
    11:00 +34°C° 0 mm 4 m/S 754 mmHg 27%
    12:00 +35°C° 0 mm 4 m/S 754 mmHg 26%
    13:00 +35°C° 0 mm 5 m/S 754 mmHg 25%
    14:00 +36°C° 0 mm 5 m/S 754 mmHg 24%
    15:00 +35°C° 0 mm 6 m/S 754 mmHg 26%
    16:00 +33°C° 0 mm 7 m/S 754 mmHg 29%
    17:00 +32°C° 0 mm 8 m/S 754 mmHg 31%
    18:00 +29°C° 0 mm 7 m/S 754 mmHg 35%
    19:00 +27°C° 0 mm 7 m/S 755 mmHg 38%
    20:00 +23°C° 0 mm 6 m/S 755 mmHg 42%
    21:00 +22°C° 0 mm 5 m/S 755 mmHg 44%
    22:00 +21°C° 0 mm 5 m/S 755 mmHg 46%
    23:00 +21°C° 0 mm 4 m/S 755 mmHg 48%

    29 Mai, Mittwoch

    Zeit Temperatur Niederschläge Wind Luftdruck Luftfeuchtigkeit
    00:00 +20°C° 0 mm 4 m/S 755 mmHg 49%
    01:00 +20°C° 0 mm 4 m/S 755 mmHg 49%
    02:00 +19°C° 0 mm 4 m/S 755 mmHg 50%
    03:00 +20°C° 0 mm 4 m/S 755 mmHg 47%
    04:00 +20°C° 0 mm 5 m/S 756 mmHg 44%
    05:00 +20°C° 0 mm 5 m/S 756 mmHg 41%
    06:00 +22°C° 0 mm 5 m/S 756 mmHg 37%
    07:00 +24°C° 0 mm 6 m/S 757 mmHg 34%
    08:00 +27°C° 0 mm 6 m/S 757 mmHg 30%
    09:00 +29°C° 0 mm 6 m/S 757 mmHg 27%
    10:00 +30°C° 0 mm 5 m/S 757 mmHg 24%
    11:00 +33°C° 0 mm 5 m/S 757 mmHg 22%
    12:00 +34°C° 0 mm 5 m/S 757 mmHg 20%
    13:00 +34°C° 0 mm 5 m/S 757 mmHg 18%
    14:00 +35°C° 0 mm 5 m/S 756 mmHg 16%
    15:00 +35°C° 0 mm 5 m/S 756 mmHg 15%
    16:00 +34°C° 0 mm 5 m/S 756 mmHg 15%
    17:00 +34°C° 0 mm 5 m/S 756 mmHg 14%
    18:00 +30°C° 0 mm 4 m/S 757 mmHg 17%
    19:00 +28°C° 0 mm 4 m/S 757 mmHg 21%
    20:00 +26°C° 0 mm 4 m/S 758 mmHg 24%
    21:00 +25°C° 0 mm 4 m/S 758 mmHg 26%
    22:00 +23°C° 0 mm 4 m/S 758 mmHg 27%
    23:00 +22°C° 0 mm 5 m/S 758 mmHg 29%

    30 Mai, Donnerstag

    Zeit Temperatur Niederschläge Wind Luftdruck Luftfeuchtigkeit
    00:00 +21°C° 0 mm 4 m/S 758 mmHg 31%
    01:00 +20°C° 0 mm 4 m/S 758 mmHg 33%
    02:00 +20°C° 0 mm 4 m/S 758 mmHg 35%
    03:00 +20°C° 0 mm 4 m/S 758 mmHg 35%
    04:00 +20°C° 0 mm 4 m/S 758 mmHg 34%
    05:00 +20°C° 0 mm 4 m/S 759 mmHg 34%
    06:00 +22°C° 0 mm 4 m/S 759 mmHg 32%
    07:00 +25°C° 0 mm 5 m/S 759 mmHg 29%
    08:00 +27°C° 0 mm 5 m/S 759 mmHg 27%
    09:00 +29°C° 0 mm 5 m/S 759 mmHg 23%
    10:00 +32°C° 0 mm 4 m/S 759 mmHg 20%
    11:00 +34°C° 0 mm 4 m/S 759 mmHg 17%
    12:00 +35°C° 0 mm 4 m/S 759 mmHg 16%
    13:00 +35°C° 0 mm 4 m/S 758 mmHg 15%
    14:00 +36°C° 0 mm 4 m/S 758 mmHg 15%
    15:00 +36°C° 0 mm 4 m/S 758 mmHg 15%
    16:00 +35°C° 0 mm 5 m/S 758 mmHg 15%
    17:00 +35°C° 0 mm 5 m/S 757 mmHg 15%
    18:00 +33°C° 0 mm 5 m/S 758 mmHg 18%
    19:00 +29°C° 0 mm 4 m/S 758 mmHg 21%
    20:00 +27°C° 0 mm 4 m/S 758 mmHg 23%
    21:00 +25°C° 0 mm 3 m/S 758 mmHg 30%
    22:00 +23°C° 0 mm 2 m/S 758 mmHg 37%
    23:00 +20°C° 0 mm 2 m/S 758 mmHg 43%
    Mehr zeigen